Regional Weather Roundup
Issued by NWS Little Rock, AR

Home | Current Version | Previous Version | Text Only | Print | Product List | Glossary Off
Versions: 1 2 3 4 5 6 7 8 9 10 11 12 13 14 15 16 17 18 19 20 21 22 23 24 25 26 27 28 29 30 31 32 33 34 35 36 37 38 39 40 41 42 43 44 45 46 47 48 49 50

000
ASUS44 KLZK 231805
RWRLZK

WEATHER ROUNDUP FOR ARKANSAS
NATIONAL WEATHER SERVICE LITTLE ROCK AR
1200 PM CST SUN NOV 23 2014

NOTE: "FAIR" INDICATES FEW OR NO CLOUDS BELOW 12,000 FEET WITH NO
SIGNIFICANT WEATHER AND/OR OBSTRUCTIONS TO VISIBILITY.

ARZ001-003-010-029-231900-
NORTHWEST ARKANSAS

CITY           SKY/WX    TMP DP  RH WIND       PRES   REMARKS
FAYETTEVILLE   PTSUNNY   61  55  81 S16       29.41F
6HR MIN TEMP:  56; 6HR MAX TEMP:  62;

FORT SMITH     CLOUDY    67  57  70 SE7       29.39F
6HR MIN TEMP:  55; 6HR MAX TEMP:  68;

HARRISON       CLOUDY    56  56 100 S5        29.44F
6HR MIN TEMP:  54; 6HR MAX TEMP:  56; 6HR PCP: TRACE;

BENTONVILLE    CLOUDY    63  54  72 S8        29.42F
6HR MIN TEMP:  55; 6HR MAX TEMP:  63;

ROGERS         CLOUDY    62  55  77 S9        29.41F
6HR MIN TEMP:  56; 6HR MAX TEMP:  62;

SILOAM SPGS    CLOUDY    63  52  67 S10       29.41F
6HR MIN TEMP:  57; 6HR MAX TEMP:  63;

HIGHFILL       CLOUDY    63  55  75 S12       29.39F
6HR MIN TEMP:  57; 6HR MAX TEMP:  63; 6HR PCP: TRACE;

SPRINGDALE     PTSUNNY   63  55  77 S14       29.43F
$$

ARZ004-005-016-231900-
NORTH CENTRAL ARKANSAS

CITY           SKY/WX    TMP DP  RH WIND       PRES   REMARKS
BATESVILLE     CLOUDY    59  57  94 SE6       29.47F
6HR MIN TEMP:  57; 6HR MAX TEMP:  59; 6HR PCP:  0.45;

FLIPPIN        CLOUDY    55  52  88 E3        29.44F
6HR MIN TEMP:  54; 6HR MAX TEMP:  55; 6HR PCP:  0.04;

MTN HOME       LGT RAIN  56  55  97 E5        29.44F
6HR MIN TEMP:  53; 6HR MAX TEMP:  56; 6HR PCP:  0.14;

$$

ARZ040-041-231900-
WEST CENTRAL ARKANSAS

CITY           SKY/WX    TMP DP  RH WIND       PRES   REMARKS
MENA           CLOUDY    63  61  94 CALM      29.42F
MOUNT IDA      CLOUDY    63  59  87 VRB3      29.41F
6HR MIN TEMP:  58; 6HR MAX TEMP:  63; 6HR PCP:  0.04;

$$

ARZ009-017-025-026-028-231900-
NORTHEAST ARKANSAS

CITY           SKY/WX    TMP DP  RH WIND       PRES   REMARKS
CORNING        LGT RAIN  57  57 100 SE15      29.49F
JONESBORO      LGT RAIN  58  58 100 SE9       29.49F
6HR MIN TEMP:  57; 6HR MAX TEMP:  59; 6HR PCP:  0.03;

NEWPORT        LGT RAIN  59  59 100 SE13      29.48F
6HR MIN TEMP:  55; 6HR MAX TEMP:  59; 6HR PCP:  0.38;

WALNUT RIDGE   CLOUDY    57  54  88 SE13      29.47F
6HR MIN TEMP:  54; 6HR MAX TEMP:  57; 6HR PCP:  0.10;

BLYTHEVILLE    LGT RAIN  65  58  78 SE13G21   29.51F
6HR MIN TEMP:  65; 6HR MAX TEMP:  66; 6HR PCP:  0.11;

$$

ARZ022-023-033-042-044-231900-
CENTRAL ARKANSAS

CITY           SKY/WX    TMP DP  RH WIND       PRES   REMARKS
LITTLE ROCK    LGT RAIN  61  57  87 SE7       29.44F
6HR MIN TEMP:  58; 6HR MAX TEMP:  61; 6HR PCP:  0.38;

N LITTLE ROCK  CLOUDY    59  59 100 S6        29.44F
6HR MIN TEMP:  56; 6HR MAX TEMP:  59;

JACKSONVILLE   LGT RAIN  60  59  99 VRB6      29.44F
6HR MIN TEMP:  57; 6HR MAX TEMP:  60; 6HR PCP:  0.45;

SEARCY         LGT RAIN  59  58  96 SE6       29.47F
6HR MIN TEMP:  58; 6HR MAX TEMP:  59; 6HR PCP:  0.50;

HOT SPRINGS    CLOUDY    61  59  93 CALM      29.44F
6HR MIN TEMP:  58; 6HR MAX TEMP:  61; 6HR PCP:  0.25;

RUSSELLVILLE   CLOUDY    60  58  92 VRB3      29.43F
6HR MIN TEMP:  57; 6HR MAX TEMP:  60;

CLINTON        LGT RAIN  57  57 100 CALM      29.47F
$$

ARZ036-231900-
EAST ARKANSAS

CITY           SKY/WX    TMP DP  RH WIND       PRES   REMARKS
WEST MEMPHIS   RAIN      58  58 100 SE12      29.46F FOG
6HR MIN TEMP:  58; 6HR MAX TEMP:  60; 6HR PCP:  0.31;

$$

ARZ050-053-066-070-073-231900-
SOUTHWEST ARKANSAS

CITY           SKY/WX    TMP DP  RH WIND       PRES   REMARKS
ARKADELPHIA    CLOUDY    62  62 100 SW5       29.45F
6HR MIN TEMP:  59; 6HR MAX TEMP:  62; 6HR PCP:  0.23;

CAMDEN         LGT RAIN  61  59  94 NE3       29.47F
TEXARKANA      CLOUDY    64  61  90 SW14      29.46F
6HR MIN TEMP:  61; 6HR MAX TEMP:  64; 6HR PCP:  0.16;

EL DORADO      LGT RAIN  62  61  96 SW5       29.48F
6HR MIN TEMP:  59; 6HR MAX TEMP:  62; 6HR PCP:  0.35;

DE QUEEN       CLOUDY    64  61  90 VRB3      29.42F
6HR MIN TEMP:  58; 6HR MAX TEMP:  64;

$$

ARZ056-057-069-231900-
SOUTHEAST ARKANSAS

CITY           SKY/WX    TMP DP  RH WIND       PRES   REMARKS
PINE BLUFF     RAIN      60  59  96 SE8       29.45F
6HR MIN TEMP:  57; 6HR MAX TEMP:  60; 6HR PCP:  0.52;

STUTTGART      CLOUDY    59  55  88 E10G16    29.45F
6HR MIN TEMP:  57; 6HR MAX TEMP:  61; 6HR PCP:  0.47;

MONTICELLO     HVY RAIN  60  58  92 NW8       29.43F FOG
6HR MIN TEMP:  59; 6HR MAX TEMP:  61; 6HR PCP:  0.82;


$$





USA.gov is the U.S. government's official web portal to all federal, state and local government web resources and services.